Home   Weather   Bernau bei Berlin   Past weeks

Flag for Germany Past Weather in Bernau bei Berlin, Brandenburg, Germany — Yesterday and Last 2 Weeks

Now
34 °F

Fog.


Feels Like: 29 °F
Forecast: 31 / 35 °F
Wind: 6 mph from West

Location: Berlin-Tegel

Current Time: Jan 20, 2017 at 7:35:24 pm

Latest Report: Jan 20, 2017 at 7:20 pm


Visibility: 2 mi

Pressure: 30.54 "Hg

Humidity: 93%

Dew Point: 32 °F

Location of Bernau bei BerlinLocation

Past Weather in Bernau bei Berlin — Graph

°F

Bernau bei Berlin Temperature Yesterday

Maximum temperature yesterday: 30 °F (at 1:20 pm)
Minimum temperature yesterday: 25 °F (at 12:20 am)
Average temperature yesterday: 28 °F

High & Low Weather Summary for the Past Weeks

 TemperatureHumidityPressure
High41 °F (Jan 12, 1:50 pm)100% (Jan 7, 5:50 pm)30.77 "Hg (Jan 7, 5:50 pm)
Low16 °F (Jan 6, 8:50 am)63% (Jan 7, 12:50 pm)29.00 "Hg (Jan 13, 7:50 am)
Average29 °F87%30.17 "Hg
* Reported Jan 5 6:20 pm — Jan 20 6:20 pm, Bernau bei Berlin, Weather by CustomWeather, © 2017

Note: Actual official high and low records may vary slightly from our data, if they occured in-between our weather recording intervals... More about our weather records

Advertising

Bernau bei Berlin Weather History for the Previous 24 Hours

Scroll right to see more
 ConditionsComfort  
Time TempWeatherWind HumidityBarometerVisibility
6:20 pm
Fri, Jan 20
34 °FDrizzle. Fog.7 mph93%30.54 "Hg2 mi
5:50 pm34 °FFog.6 mph93%30.54 "Hg2 mi
5:20 pm34 °FFog.6 mph93%30.54 "Hg2 mi
4:50 pm34 °FFog.6 mph93%30.54 "Hg2 mi
4:20 pm34 °FFog.5 mph93%30.54 "Hg2 mi
3:50 pm34 °FFog.7 mph93%30.54 "Hg2 mi
3:20 pm34 °FFog.8 mph93%30.54 "Hg2 mi
2:50 pm34 °FFog.8 mph93%30.54 "Hg2 mi
2:20 pm34 °FFog.7 mph93%30.54 "Hg2 mi
1:50 pm34 °FFog.7 mph93%30.57 "Hg2 mi
1:20 pm34 °FFog.7 mph93%30.57 "Hg2 mi
12:50 pm34 °FFog.8 mph93%30.57 "Hg2 mi
12:20 pm34 °FFog.8 mph87%30.57 "Hg3 mi
11:50 am32 °FPartly sunny.8 mph93%30.60 "Hg4 mi
11:20 am32 °FPartly sunny.8 mph87%30.60 "Hg4 mi
10:50 am32 °FDrizzle. Broken clouds.7 mph87%30.60 "Hg4 mi
10:20 am32 °FDrizzle. Broken clouds.6 mph80%30.60 "Hg4 mi
9:50 am32 °FPartly sunny.6 mph80%30.60 "Hg5 mi
9:20 am32 °FPartly sunny.6 mph80%30.60 "Hg5 mi
8:50 am32 °FPartly sunny.6 mph80%30.60 "Hg5 mi
8:20 am30 °FPartly sunny.6 mph80%30.60 "Hg5 mi
7:50 am30 °FPassing clouds.6 mph80%30.57 "Hg5 mi
7:20 am30 °FPassing clouds.7 mph80%30.57 "HgN/A
6:50 am30 °FPassing clouds.6 mph86%30.57 "HgN/A
6:20 am30 °FPassing clouds.5 mph80%30.60 "Hg6 mi
5:50 am30 °FPassing clouds.6 mph80%30.60 "HgN/A
5:20 am30 °FPassing clouds.6 mph80%30.60 "HgN/A
4:50 am30 °FPassing clouds.6 mph80%30.60 "HgN/A
4:20 am30 °FPassing clouds.7 mph80%30.60 "HgN/A
3:50 am30 °FPartly cloudy.7 mph80%30.60 "HgN/A
3:20 am30 °FPassing clouds.6 mph80%30.60 "HgN/A
2:50 am30 °FPassing clouds.6 mph80%30.60 "HgN/A
2:20 am30 °FPassing clouds.5 mph80%30.60 "HgN/A
1:50 am30 °FPassing clouds.5 mph80%30.60 "HgN/A
1:20 am30 °FPassing clouds.5 mph80%30.63 "HgN/A
12:50 am30 °FPassing clouds.5 mph80%30.63 "HgN/A
12:20 am30 °FPassing clouds.6 mph86%30.63 "HgN/A
11:50 pm
Thu, Jan 19
30 °FPassing clouds.7 mph86%30.63 "HgN/A
11:20 pm30 °FPassing clouds.9 mph86%30.63 "HgN/A
10:50 pm30 °FPassing clouds.7 mph86%30.63 "HgN/A
10:20 pm30 °FLight freezing rain. Passing clouds.6 mph80%30.63 "HgN/A
9:50 pm30 °FPartly cloudy.7 mph86%30.63 "HgN/A
9:20 pm30 °FPassing clouds.7 mph86%30.63 "HgN/A
8:50 pm30 °FPassing clouds.7 mph86%30.66 "HgN/A
8:20 pm30 °FPassing clouds.7 mph80%30.63 "HgN/A
7:50 pm30 °FPassing clouds.6 mph80%30.63 "HgN/A
7:20 pm30 °FPassing clouds.6 mph80%30.66 "HgN/A
Weather by CustomWeather, © 2017

See weather overviewHow to use our weather pages